Location: ??
(34.7252°N, 135.5457°E)
Time: 18:01:04
(UTC+00:00)

Cosmos 1544 - Pass Details

Date: 24 September 2020
Orbit: 471 x 491 km, 82.5° (Epoch: 27 October)

Event Time Altitude Azimuth Distance (km) Brightness Sun altitude
Rises 19:55:04 0° 351° (N) 2,523 6.7 -11.7°
Reaches altitude 10° 19:57:10 10° 349° (N) 1,640 5.7 -11.2°
Maximum altitude 20:00:44 74° 266° (W) 494 2.9 -10.5°
Drops below altitude 10° 20:04:16 10° 180° (S) 1,626 5.7 -9.8°
Sets 20:06:21 0° 178° (S) 2,499 6.6 -9.4°
